Helicity
77 146 219 285 332 467 749 659 580 433 371 605 670 625 750 752 613 557 484 439 378 388 358 341 333 402 345 244 279 259 221 305 343 317 320 330 348 335 349 423 373 436 500 539
82 15 36 163 226 235 371 701 926 469 473 760 705 858 886 757 698 637 670 613 560 534 421 398 371 412 383 354 332 294 276 380 427 477 404 362 360 335 330 383 380 381 490 513
59 58 25 18 36 89 243 474 686 483 537 755 835 845 772 758 700 677 552 496 412 452 538 427 591 404 314 279 260 249 313 446 514 434 409 331 371 324 335 301 456 380 465 188
48 57 62 67 32 37 133 301 405 384 537 562 460 495 601 590 596 427 418 506 447 409 436 415 378 382 348 219 255 231 207 454 366 238 259 242 236 232 280 331 242 397 224 285
15 45 79 88 73 43 138 268 302 250 341 376 363 383 402 369 340 335 398 382 242 220 281 325 300 251 291 354 172 217 183 327 247 367 239 193 225 236 228 212 220 279 221 161
44 14 8 29 70 79 116 107 117 144 228 348 325 340 295 291 177 236 239 266 306 324 165 109 155 176 181 195 282 252 257 299 371 407 217 255 394 265 163 192 212 243 261 235
72 79 44 10 15 42 102 110 99 123 239 207 261 294 276 198 164 180 167 98 166 179 141 169 197 207 194 212 210 215 271 263 261 338 302 481 335 191 140 117 82 123 133 101
63 43 37 60 68 48 106 78 113 129 159 147 168 154 170 180 108 108 132 123 111 167 173 178 203 268 266 228 190 199 228 243 288 318 286 299 204 241 236 269 159 119 143 160
46 46 22 37 44 30 81 85 111 103 83 82 152 158 100 167 130 140 125 239 224 210 153 230 272 336 264 228 186 199 147 161 251 331 349 361 228 155 207 207 190 100 91 70
23 32 47 57 53 46 116 114 93 112 101 66 68 95 160 206 179 176 139 104 202 169 202 222 264 398 251 275 226 200 204 199 153 156 217 275 234 249 282 234 146 68 75 77
21 37 33 32 37 53 93 102 118 121 96 74 82 101 50 64 89 144 173 207 197 199 192 235 244 204 214 319 229 263 283 216 237 206 219 185 219 337 231 103 110 89 77 74
47 54 50 49 56 64 83 101 110 139 144 108 88 63 44 86 113 119 82 198 213 103 147 196 255 247 344 142 224 243 228 203 225 203 160 166 64 106 89 127 149 121 101 96
18 48 46 41 36 43 63 93 133 138 114 83 121 103 104 141 158 116 -7 134 206 220 206 113 58 217 303 263 251 137 94 136 167 190 168 132 130 113 160 125 107 123 133 152
37 38 43 45 45 49 60 94 103 154 141 121 130 166 99 110 107 138 190 140 187 250 211 398 276 193 178 290 173 117 130 143 172 175 155 175 120 123 106 117 131 164 178 169
36 44 51 50 45 46 81 70 99 173 110 102 89 67 81 110 140 122 138 141 116 262 252 176 169 232 204 161 194 172 314 267 286 208 154 129 122 105 124 147 141 162 225 254
40 45 48 46 42 69 98 52 66 149 200 80 109 76 73 93 118 83 61 55 97 150 188 295 233 72 144 147 199 175 240 257 197 155 149 159 183 150 141 118 149 189 209 261
26 35 38 41 46 136 158 99 74 0 168 135 124 81 108 109 106 133 69 103 96 89 92 119 162 176 177 221 207 195 146 120 126 169 185 142 161 136 118 135 176 223 285 329
-20 -9 12 30 40 79 122 127 101 37 47 89 114 134 118 136 173 165 162 153 112 89 114 122 133 154 197 175 152 150 185 158 172 176 186 192 191 179 173 195 256 324 359 387
-10 -18 27 81 123 141 135 70 27 109 91 88 59 61 33 26 93 124 100 137 102 144 155 165 156 187 162 160 139 121 111 132 125 186 205 197 180 189 222 252 291 339 342 340
-57 126 121 167 143 203 172 92 84 57 79 141 119 156 98 68 76 56 73 72 115 113 125 128 184 204 224 272 207 175 167 145 193 228 213 193 199 189 212 227 250 263 271 270
-28 92 143 224 170 191 118 36 54 89 105 102 187 234 185 124 150 128 106 110 125 128 117 150 203 195 105 145 151 160 157 160 184 159 176 193 177 185 219 230 236 231 217 205
140 39 36 167 -27 -67 -72 -68 -80 -47 83 121 166 177 229 206 202 189 146 194 185 144 175 169 154 108 114 125 129 138 171 192 197 182 203 204 203 184 187 190 183 176 169 159
88 6 -48 -82 -46 -65 -20 24 26 17 16 102 175 259 266 238 215 193 179 172 199 251 229 190 147 156 160 163 174 199 205 212 232 233 216 193 174 155 151 139 124 109 98 85
25 4 -13 -51 -33 -37 17 66 123 206 170 200 237 267 233 237 244 227 202 237 247 246 255 190 148 160 166 154 162 184 205 217 199 180 151 141 126 108 93 79 69 57 49 53
36 8 30 30 36 44 72 119 137 172 185 219 230 230 216 206 202 202 223 207 207 190 189 161 129 132 149 147 144 142 131 114 103 94 97 91 80 78 66 72 75 79 86 90
89 189 149 106 125 149 204 214 208 208 184 196 206 193 197 206 205 228 228 251 231 210 168 131 121 137 136 119 101 90 80 77 79 84 93 87 94 99 100 104 111 121 111 98
112 116 154 170 168 160 166 169 166 149 143 164 171 195 185 166 214 225 204 193 162 130 121 102 89 85 90 83 82 89 95 95 96 101 105 105 104 112 134 116 98 94 91 109
Wind_Speed
60 55 58 58 58 64 57 57 72 47 33 55 66 81 72 62 63 59 65 68 70 72 66 72 70 68 58 42 46 57 50 63 76 71 55 50 50 57 52 67 73 66 72 84
66 58 56 53 54 55 58 64 62 47 46 76 77 69 70 63 62 66 67 70 68 63 69 77 70 67 58 48 51 54 48 63 82 81 65 56 61 57 53 55 62 75 81 78
59 57 51 46 48 45 50 60 74 63 60 62 70 73 78 77 62 69 64 64 59 63 72 66 77 76 56 46 52 50 46 64 76 94 82 68 76 67 59 62 75 76 80 83
60 56 56 54 51 46 45 57 67 61 74 77 79 75 69 74 75 63 61 71 75 76 85 81 77 59 60 55 50 49 53 83 77 83 81 80 82 80 69 69 70 81 89 81
54 57 56 54 55 49 56 68 70 62 72 70 75 73 75 83 83 71 70 68 64 68 74 70 74 67 68 74 58 57 54 89 75 88 75 75 92 84 73 75 79 80 79 90
56 52 52 55 55 50 56 55 60 65 69 66 74 80 83 83 76 76 74 76 79 84 77 72 72 69 69 65 60 63 66 67 73 99 78 87 107 86 74 70 69 70 81 75
63 61 56 55 55 56 55 54 59 71 94 82 87 83 81 84 82 88 76 71 77 71 58 58 62 66 68 63 66 61 72 74 78 95 87 120 84 60 61 66 64 59 59 58
59 59 55 57 57 58 63 65 61 67 85 81 82 83 84 80 79 79 75 70 65 53 57 68 73 73 75 77 74 70 64 69 82 93 96 100 97 74 71 70 76 56 56 54
51 49 46 46 51 53 55 64 61 67 81 87 75 83 80 88 83 75 73 59 54 55 63 68 83 91 76 73 66 55 59 62 70 75 94 105 82 60 44 43 77 47 40 45
43 43 46 47 49 49 49 60 51 56 72 77 79 82 73 67 72 80 69 64 63 54 69 81 85 84 62 80 79 68 61 58 69 76 83 77 60 46 36 68 65 47 37 38
44 45 48 50 53 54 48 58 50 58 72 74 63 62 73 70 64 75 64 64 63 60 77 74 78 77 70 71 66 70 66 63 69 67 74 85 39 33 48 45 36 34 34 30
49 46 46 47 50 53 54 62 52 51 61 68 57 62 66 65 64 72 62 69 61 54 54 65 64 65 55 65 78 54 69 57 63 55 57 43 25 35 27 34 42 38 34 32
51 47 47 46 48 49 49 59 50 54 63 71 68 71 63 65 67 64 71 65 61 63 55 63 63 69 48 58 55 50 47 46 55 53 53 48 42 39 43 41 40 35 33 31
57 51 49 47 48 51 51 55 49 51 55 67 71 56 59 49 52 60 67 73 60 51 53 59 58 64 49 60 55 56 53 44 54 63 60 54 55 49 42 39 35 37 32 27
57 55 54 52 52 55 52 52 48 42 50 54 51 51 50 49 52 55 59 73 72 64 63 65 69 57 55 62 66 74 58 69 69 73 62 59 58 46 39 38 36 34 29 29
57 57 54 50 50 46 48 58 50 46 46 51 54 48 47 45 51 49 44 44 57 63 61 56 48 49 48 55 62 69 61 58 54 58 54 50 49 49 44 40 36 30 28 27
48 54 54 52 47 39 43 45 41 46 40 44 53 54 50 48 46 42 44 45 47 51 54 55 59 59 52 58 70 66 61 43 39 45 45 50 46 48 40 38 33 28 28 27
57 43 28 14 20 36 43 44 45 41 42 42 49 54 55 45 52 50 45 45 46 49 53 53 56 54 57 71 63 60 52 44 45 40 40 45 40 35 36 33 27 28 26 24
49 57 34 14 23 22 27 32 48 53 53 47 38 38 46 31 43 46 46 45 50 48 54 53 49 56 66 65 64 58 49 46 44 39 41 39 35 33 33 31 30 26 25 24
64 39 24 14 4 8 16 31 40 43 43 40 48 41 47 39 38 36 37 42 47 52 51 47 58 70 63 58 55 52 50 44 35 42 43 36 34 35 34 34 31 26 23 24
40 15 16 20 6 25 26 4 17 26 38 33 42 41 47 41 42 40 41 45 45 58 57 53 59 65 55 56 56 51 49 43 36 45 39 33 33 31 33 33 30 26 25 27
51 43 41 37 40 39 43 44 43 47 51 49 41 39 37 36 35 40 37 44 41 51 39 44 50 46 52 53 50 49 46 35 31 35 32 32 29 29 29 29 29 29 30 32
46 44 43 41 39 38 38 35 38 37 32 23 11 13 16 26 34 29 29 33 38 30 38 46 43 48 51 49 47 44 40 34 31 31 30 28 28 30 32 32 34 36 38 41
36 37 35 32 30 29 27 25 14 23 37 22 24 31 33 32 31 32 27 32 29 38 45 47 46 51 53 45 42 40 39 37 34 33 33 33 34 36 38 40 43 47 53 55
26 24 21 17 15 13 15 21 24 36 31 23 23 27 29 30 24 29 22 25 29 29 42 42 44 46 44 41 42 42 40 40 40 40 41 43 46 50 55 55 57 59 64 67
24 25 21 22 22 23 28 30 30 36 27 26 28 28 28 28 28 27 28 31 37 40 40 42 43 46 47 48 47 47 48 49 51 53 55 58 61 64 68 69 69 70 71 75
28 29 30 28 28 27 29 31 34 35 24 27 28 29 32 31 35 36 36 40 42 45 47 48 50 54 59 60 60 60 61 64 65 67 68 70 71 72 75 81 80 76 76 77
Wind_Direction
285 290 292 289 289 291 291 283 274 286 274 265 272 269 276 285 278 276 279 285 281 283 289 294 293 293 298 309 311 306 305 308 303 306 314 316 311 308 308 308 314 312 313 310
288 286 289 290 287 287 284 277 282 285 275 268 267 277 278 280 282 279 283 281 284 287 287 291 291 296 303 300 299 305 308 305 305 311 312 313 308 308 306 309 309 301 305 311
286 290 288 289 289 288 282 281 274 277 274 273 274 275 276 277 284 281 283 287 286 288 287 290 296 297 301 305 300 305 300 295 296 298 306 314 308 307 303 301 303 305 298 302
283 287 286 286 286 286 281 275 276 278 275 270 269 273 277 279 281 284 283 285 282 283 287 290 289 290 299 302 301 303 301 296 298 298 299 301 300 301 302 298 296 298 300 297
280 282 286 287 285 282 275 274 275 281 278 276 273 271 273 273 276 285 286 287 290 287 284 286 292 295 295 294 297 296 296 297 301 299 299 299 298 298 297 296 296 293 291 294
279 281 279 280 281 285 277 278 279 281 276 279 273 271 273 276 277 280 279 283 286 284 286 291 295 295 295 293 293 295 298 299 300 297 303 303 298 300 298 299 297 294 293 295
276 278 276 275 276 277 284 282 283 275 273 272 273 278 278 274 276 278 282 282 280 287 294 296 293 291 288 286 286 288 291 291 296 298 303 295 304 312 308 301 300 299 298 301
276 274 275 275 276 277 275 278 282 279 278 275 274 274 275 280 285 280 279 280 286 291 289 289 290 290 290 286 284 282 279 286 292 292 293 299 301 303 304 303 303 307 301 301
277 278 281 281 280 280 278 278 279 278 277 277 285 279 274 277 279 282 280 284 284 285 285 285 283 285 290 294 299 299 282 279 283 292 295 296 308 316 317 317 304 315 313 310
274 277 281 286 286 285 281 278 285 285 279 278 276 277 285 281 277 279 284 282 283 275 279 282 284 283 286 288 290 294 295 290 282 286 292 298 302 309 318 306 310 318 321 319
278 281 284 285 285 286 285 284 280 280 283 284 280 278 274 284 282 276 286 282 280 276 279 281 283 284 284 286 287 289 284 289 291 293 294 298 312 310 298 313 323 324 324 324
279 282 285 287 290 289 287 284 283 280 281 285 292 285 278 275 273 280 288 284 281 279 280 282 285 286 289 290 289 294 284 285 292 290 299 312 313 314 307 317 318 319 321 322
276 280 284 288 291 293 293 287 286 284 285 286 285 284 282 278 276 273 278 284 280 277 283 278 288 287 284 284 289 296 298 297 295 296 298 295 301 301 307 310 312 316 317 317
274 279 284 288 292 294 296 291 289 285 288 287 283 288 285 289 284 278 272 274 282 284 283 278 278 278 285 285 288 286 293 298 294 292 295 301 299 300 299 303 309 311 312 310
275 278 280 283 288 289 297 296 289 280 284 291 295 294 288 291 285 284 286 275 273 275 273 275 279 284 284 287 288 285 287 289 288 289 293 296 299 304 301 300 299 300 301 305
273 276 279 283 287 294 297 293 291 274 275 292 286 298 296 294 290 290 290 291 276 273 273 276 283 288 285 288 287 291 295 295 288 288 296 294 302 304 307 304 303 300 297 300
270 276 278 281 283 285 285 288 296 285 270 282 292 294 297 294 291 294 286 287 286 281 280 278 279 282 282 290 292 298 303 302 296 298 299 296 303 304 309 311 310 306 306 307
209 201 198 225 283 289 285 282 284 281 279 286 293 293 294 300 289 285 285 284 288 286 284 284 281 287 287 287 294 304 308 303 299 298 299 302 310 311 312 315 314 309 305 306
199 203 189 290 287 291 297 291 270 266 268 287 297 308 310 317 299 285 284 286 286 290 285 285 288 287 285 295 300 301 303 302 302 300 303 305 305 310 313 312 313 310 308 309
200 266 281 290 12 44 332 300 279 270 277 286 290 298 292 305 310 302 295 290 287 289 291 296 288 287 294 302 304 303 303 301 303 299 300 302 302 305 307 309 313 314 315 315
151 130 283 276 316 305 311 333 304 292 288 298 296 290 288 286 285 291 300 298 297 289 289 290 294 294 302 305 302 300 301 303 300 302 306 306 304 302 305 310 314 319 319 316
127 115 119 209 162 169 179 185 190 197 260 267 291 298 296 291 290 291 299 299 303 297 307 300 300 305 305 307 308 306 305 304 307 314 316 315 313 313 313 314 315 316 317 315
105 123 142 157 169 162 163 157 173 180 177 153 118 358 345 312 296 307 311 306 304 320 306 302 308 310 305 309 312 314 316 317 318 322 324 324 322 319 317 315 313 311 310 309
107 132 131 143 139 155 154 155 113 335 301 336 323 307 304 307 307 309 317 314 318 308 304 305 311 307 307 313 317 318 318 320 321 320 319 319 317 315 313 310 309 306 303 302
72 84 103 108 101 54 32 359 343 317 319 331 332 324 319 317 328 320 329 324 317 318 313 315 317 319 320 320 319 319 318 316 314 314 313 311 310 307 304 304 304 302 300 299
24 16 25 18 9 355 343 337 336 325 331 330 327 328 327 320 321 319 314 315 312 317 318 319 319 319 320 319 317 315 314 311 309 308 307 306 304 303 302 302 301 300 299 297
8 0 359 355 351 347 345 340 332 326 333 329 330 325 318 325 318 313 315 312 315 315 315 316 315 313 312 312 311 310 309 307 306 305 304 303 303 303 301 299 300 299 298 297